Regional Weather Roundup
Issued by NWS

Home | Current Version | Previous Version | Graphics & Text | Print | Product List | Glossary Off
Versions: 1 2 3 4 5 6 7 8 9 10 11 12 13 14 15 16 17 18 19 20 21 22 23 24 25 26 27 28 29 30 31 32 33 34 35 36 37 38 39 40 41 42 43 44 45 46 47 48 49 50

000
ASUS43 KMKX 021521
RWRWI

WISCONSIN REGIONAL WEATHER ROUNDUP
NATIONAL WEATHER SERVICE MILWAUKEE/SULLIVAN WI
1000 AM CDT WED SEP 02 2015

NOTE: "FAIR" INDICATES FEW OR NO CLOUDS BELOW 12,000 FEET WITH NO
SIGNIFICANT WEATHER AND/OR OBSTRUCTIONS TO VISIBILITY.

WIZ001-002-006>008-014>016-023>028-021600-
NORTHWEST WISCONSIN

CITY           SKY/WX    TMP DP  RH WIND       PRES   REMARKS
SUPERIOR ARPT  DRIZZLE   64  63  98 NE6       29.98F
ASHLAND        LGT RAIN  69  69 100 NW8       30.01F
HAYWARD        CLOUDY    68  66  93 N5        30.00R
SIREN          CLOUDY    67  65  93 E3        29.96R
CUMBERLAND     CLOUDY    66  63  88 SE8       29.98
RICE LAKE      CLOUDY    67  65  93 E8        30.00S
CHETEK         LGT RAIN N/A N/A N/A E5        30.00R
LADYSMITH      LGT RAIN  68  66  93 SE6       30.02R
EAU CLAIRE     LGT RAIN  70  67  90 NW5       29.98F FOG
MENOMONIE      TSTM      69  67  95 N3        29.98F
NEW RICHMOND   CLOUDY    67  64  90 SE10      29.96S
OSCEOLA        CLOUDY    71  71 100 SE8       29.97S
$$

WIZ003>005-009-010-017-018-021600-
NORTH CENTRAL WISCONSIN

CITY           SKY/WX    TMP DP  RH WIND       PRES   REMARKS
MANITOWISH WTR CLOUDY    65  65 100 NE3       30.03S
ARBOR VITAE    CLOUDY    67  65  93 N7        30.02R
WOODRUFF       CLOUDY    67  65  93 N7        30.02R
RHINELANDER    LGT RAIN  68  65  90 E6        30.02F
EAGLE RIVER    CLOUDY    65  64  94 NE6       30.01F
LAND O LAKES   LGT RAIN  65  64  97 NW3       30.03F
PHILLIPS       CLOUDY    67  65  93 NE3       30.01R
TOMAHAWK       CLOUDY    69  65  89 NE3       30.02S
MEDFORD        CLOUDY    71  65  82 N5        30.02R
MERRILL        CLOUDY    72  72 100 CALM      30.02R
$$

WIZ029-030-035-036-043>047-021600-
CENTRAL WISCONSIN

CITY           SKY/WX    TMP DP  RH WIND       PRES   REMARKS
WAUSAU         CLOUDY    76  72  87 SW5       29.98S FOG
MOSINEE        MOSUNNY   75  75 100 SW8       30.00F FOG
MARSHFIELD     CLOUDY    76  70  82 SW6       30.00S
STEVENS POINT  CLOUDY    77  71  81 S6        29.99F
WAUPACA        PTSUNNY   83  73  69 S5        29.99S HX  89
WAUTOMA        PTSUNNY   83  72  69 SW6       29.99F HX  88
WISC RAPIDS    PTSUNNY   79  69  71 SW8       30.01S HX  81
CAMP DOUGLAS   PTSUNNY   77  77 100 CALM      29.99S
$$

WIZ011>013-019>022-031-037>040-048>050-021600-
NORTHEAST WISCONSIN

CITY           SKY/WX    TMP DP  RH WIND       PRES   REMARKS
ANTIGO         CLOUDY    74  72  93 SW3       30.02S
SHAWANO        MOSUNNY   81  74  78 SW6       29.99R HX  86
OCONTO         MOSUNNY   80  77  91 W5        29.97S HX  87
STURGEON BAY   MOSUNNY   81  73  78 S5        30.00S HX  85
GREEN BAY      SUNNY     82  75  79 SW8       29.98S HX  89
MANITOWOC      SUNNY     82  74  76 MISG      29.99S HX  88
APPLETON       PTSUNNY   79  73  83 SW6       29.99  HX  82
CLINTONVILLE   MOSUNNY   81  72  74 SW5       29.98S HX  84
OSHKOSH        MOSUNNY   80  72  76 S8        30.00S HX  84
$$

WIZ032>034-041-042-053>061-021600-
SOUTHWEST WISCONSIN

CITY           SKY/WX    TMP DP  RH WIND       PRES   REMARKS
LA CROSSE      CLOUDY    79  69  71 S12       29.96S HX  81
SPARTA         CLOUDY    78  67  69 S3        29.99R HX  80
VIROQUA          N/A     76  68  77 SW6       30.01R
BOSCOBEL       PTSUNNY   81  70  69 W7        30.00R HX  84
PRAIRIE DU CHI CLOUDY    76  67  72 S3        29.99F
PLATTEVILLE    PTSUNNY   78  72  81 S9        30.02S HX  81
$$

WIZ056-057-062-063-064-067-068-021600-
SOUTH CENTRAL WISCONSIN

CITY           SKY/WX    TMP DP  RH WIND       PRES   REMARKS
REEDSBURG      MOSUNNY   80  70  72 S7        29.99S HX  83
BARABOO/DELLS  MOSUNNY   82  66  59 SW8       30.00S HX  84
LONE ROCK      PTSUNNY   80  69  69 SW6       30.00S HX  83
MINERAL POINT  PTSUNNY   79  70  73 S8        30.03S HX  81
MADISON        PTSUNNY   79  70  74 S7        30.01F HX  82
MIDDLETON      SUNNY     82  68  63 SW7       30.02S HX  85
WATERTOWN      SUNNY     78  76  92 S5        30.03S HX  80
MONROE         MOSUNNY   79  70  73 SW12      30.04F HX  81
JANESVILLE     SUNNY     81  70  69 SW8       30.03F HX  84
$$

WIZ051-052-058>065-066-070>072-021600-
SOUTHEAST WISCONSIN

CITY           SKY/WX    TMP DP  RH WIND       PRES   REMARKS
MILWAUKEE      MOSUNNY   82  69  64 W7        30.03S HX  85
WAUKESHA       SUNNY     79  70  73 SW6       30.05S HX  81
MILWAUKEE/TIMM SUNNY     81  68  65 SW5       30.03S HX  83
RACINE         SUNNY     82  70  66 W7        30.05F HX  86
BURLINGTON     SUNNY     79  69  70 SW7       30.05R HX  82
KENOSHA        SUNNY     81  71  71 W7        30.05S HX  85
FOND DU LAC    MOSUNNY   79  71  76 SW8       30.01S HX  82
SHEBOYGAN      SUNNY     83  72  69 W8        30.01R HX  88
WEST BEND      SUNNY     81  68  65 CALM      30.03S HX  83
JUNEAU         SUNNY     77  71  82 S5        30.04S
$$

LSZ147-162-021600-
LAKE SUPERIOR

STATION/POSITION TIME  TEMP    WIND        PRES    WAVE
                       AIR SEA DIR/SP/G            HT/PER
                 (UTC) (F)     (DEG/KT/KT) (MB)    (FT/S)
W MID LAKE BUOY  1450   57 56  100/  4/  4 1016.2R   0
DEVILS ISLAND    1500   66      60/ 16/ 16 1016.1F
PORT WING        1440   65      60/  4/  5 1016.6R
SAXON HARBOR     1400   68     200/  6/ 11 1015.2
$$

LMZ867-665-643>646-021600-
LAKE MICHIGAN

STATION/POSITION TIME  TEMP    WIND        PRES    WAVE
                       AIR SEA DIR/SP/G            HT/PER
                 (UTC) (F)     (DEG/KT/KT) (MB)    (FT/S)
CHAMBERS ISLAND  1400   75      CALM  /  4 1014.6F
N MID LAKE BUOY  1450   65 65  210/  6/  6 1014.7R   1/ 4
NORTHPORT PIER   1400   67     140/  3/  3 1014.9S
SISTER BAY       1404   77        CALM       N/A
ALGOMA LAKESHORE 1429          200/  3/  5   N/A
KEWAUNEE LAKESHO 1500   68     160/  4/  6 1014.4R
SHEBOYGAN LAKESH 1500   76     180/  8/  9 1015.9R
PORT WASHINGTON  1440   69     110/  2/  8 1016.9S
ATWATER BUOY     1500   60     160/  6/  8 1017.9S
MILWAUKEE LAKESH 1510   71     150/  7/  8   N/A
S MID LAKE BUOY  1450   72 70  210/ 10/ 12 1016.8F
KENOSHA   LAKESH 1500   76     240/  4/  7 1016.9S
$$

TC  - TEMPERATURE IN CELSIUS
VSB - VISIBILITY IN STATUTE MILES
WCI - WIND CHILL INDEX
HX  - HEAT INDEX




USA.gov is the U.S. government's official web portal to all federal, state and local government web resources and services.